Showing default

SJ-16, 39358

Orbit data source: Space-Track

SJ-16, 39358 is a payload satellite owned by CNMSC (CN) in LEO that was launched on Fri, 25 Oct 2013 UTC via a CHANG ZHENG 4B launch vehicle from the Jiuquan Satellite Launch Center, China (JSC). Payload-class satellites include a variety of spacecraft equipped with specific instruments for various scientific and technological missions. These include communications satellites like Starlink; space stations such as the ISS; scientific satellites like the Hubble; Earth observation satellites from companies like Planet Labs, Umbra, and HawkEye 360; GPS; miniature CubeSats for education and research; and military/defense satellites.

Loading next visibility...
Identifier
39358, 2013-057A
Orbit
LEO
Country
Flag of CNCN / PRC
Related business
Manufacturer
SISE
Mission
Operational Defense Technology
Bus & Motor
SJ-16, Unknown motor
Mass
~2,000 kg wet, ~2,000 kg dry
Launch date (UTC)
2013-10-25 (12 years ago)
Launch vehicle
CHANG ZHENG 4B
Launch site
Jiuquan Satellite Launch Center, China (JSC)
Object type
Payload
Rocket body
Debris
Shape & HBR
Box + 2 Pan, 5.0 m
Radar Cross Section
14.304 m², Large (>1 m²)

Expand to show TLE details & history
Last TLE update: 10 hours ago

TLE from 10 hours ago
0 SJ-16
1 39358U 13057A   26106.97347263  .00001169  00000-0  11660-3 0  9994
2 39358  74.9698 112.6064 0015801  14.0287 346.1337 14.92461765677215
Epoch: 2026-04-16T23:21Z
TLE epoch observation values (Epoch: 2026-04-16T23:21:48.035Z)
Latitude
0.00002°
Longitude
-82.95707°
Altitude
582.304 km
Speed
7.575 km/s
True Right ascension
07h 30m 25s
True Declination
0° 00' 00"
Sunlit
Object was in daylight at epoch
Visualization orbit readout
Latitude
Unknown
Longitude
Unknown
Altitude
Unknown
Speed
Unknown
Apparent Right ascension
Unknown
Apparent Declination
Unknown
Sunlit
N/A
Visualization observer readout
Local Sidereal Time
15:54:05
Azimuth
Unknown
Elevation
Unknown
Doppler factor
Unknown
Orbital elements
Apogee altitude
598.752 km
Perigee altitude
576.738 km
Semi-major axis
6,965.882 km
Eccentricity
0.00158
Inclination
74.9698°
RAAN
112.6064°
Arg. of periapsis
14.0287°
True anomaly
346.09022°
Mean anomaly
346.1337°
Eccentric anomaly
346.11197°
Mean motion
3.73318 °/min
Orbital period
96.43 mins
BSTAR
0.0001166
Loading maneuver chart data...
Computing Atmospheric mass density...
Loading historical data...
Loading historical data...
Loading historical data...
Loading historical data...
Loading historical data...
Loading historical data...
Loading historical data...
Other satellites on launch #57 in the year 2013 (2013-10-25 UTC)

Documentation

Showing up to 5 results
|